Weather History for Grosse Ile, MI

Change the Weather History Date:

Thursday, January 19, 2012

  Actual Average (KDTW) Record (KDTW)
Temperature  
Mean Temperature 21 °F 25 °F  
Max Temperature 30 °F 32 °F 60 °F (1907)
Min Temperature 12 °F 19 °F -20 °F (1994)
Degree Days  
Heating Degree Days 44 40  
Month to date heating degree days 750  
Since 1 July heating degree days 3047  
Cooling Degree Days 0 0  
Month to date cooling degree days 0  
Year to date cooling degree days 0  
Moisture  
Dew Point 16 °F    
Average Humidity 70    
Maximum Humidity 93    
Minimum Humidity 50    
Precipitation  
Precipitation 0.00 in 0.05 in 0.94 in (1952)
Month to date precipitation 1.25  
Year to date precipitation 1.25  
Snow  
Snow 0.00 in 0.40 in 5.00 in (1987)
Month to date snowfall 7.8  
Since 1 July snowfall 19.0  
Snow Depth -    
Sea Level Pressure  
Sea Level Pressure 29.87 in    
Wind  
Wind Speed 19 mph (WSW)    
Max Wind Speed 29 mph    
Max Gust Speed 37 mph    
Visibility 8 miles    
Events Snow    
T = Trace of Precipitation, MM = Missing Value Source: NWS Daily Summary

Daily Weather History Graph

Daily Weather History Graph

Search for Another Location

Airport:

Trip Planner

Search our weather history database for the weather conditions in past years. The results will help you decide how hot, cold, wet, or windy it might be!

Date:

Astronomy

Jan. 19, 2012 Rise Set
Actual Time 7:56 AM EST 5:30 PM EST
Civil Twilight 7:25 AM EST 6:00 PM EST
Nautical Twilight 6:51 AM EST 6:35 PM EST
Astronomical Twilight 6:18 AM EST 7:08 PM EST
Moon 4:32 AM EST (1/19) 2:00 PM EST (1/19)
Length of Visible Light 10h 34m
Length of Day
9h 33m
Waning Crescent, 16% of the Moon is Illuminated
Jan 19
Waning Crescent
Jan 23
New
Jan 30
First Quarter
Feb 7
Full
Feb 14
Last Quarter

Hourly Weather History & Observations

Time (EST) Temp. Windchill Dew Point Humidity Pressure Visibility Wind Dir Wind Speed Gust Speed Precip Events Conditions
12:14 AM 26.6 °F 12.7 °F 19.4 °F 74% 30.00 in 10.0 mi South 20.7 mph - N/A   Clear
12:34 AM 26.6 °F 13.1 °F 19.4 °F 74% 29.98 in 10.0 mi South 19.6 mph 26.5 mph N/A   Clear
12:54 AM 26.6 °F 12.7 °F 19.4 °F 74% 29.98 in 10.0 mi SSW 20.7 mph 27.6 mph N/A   Clear
1:14 AM 26.6 °F 13.4 °F 19.4 °F 74% 29.98 in 10.0 mi SSW 18.4 mph - N/A   Clear
1:35 AM 26.6 °F 14.3 °F 19.4 °F 74% 29.97 in 10.0 mi SSW 16.1 mph 21.9 mph N/A   Mostly Cloudy
1:54 AM 26.6 °F 13.1 °F 19.4 °F 74% 29.96 in 10.0 mi SSW 19.6 mph 23.0 mph N/A   Mostly Cloudy
2:14 AM 26.6 °F 12.7 °F 19.4 °F 74% 29.94 in 10.0 mi South 20.7 mph - N/A   Scattered Clouds
2:34 AM 26.6 °F 13.1 °F 19.4 °F 74% 29.93 in 10.0 mi SSW 19.6 mph 27.6 mph N/A   Scattered Clouds
2:54 AM 26.6 °F 11.7 °F 19.4 °F 74% 29.92 in 10.0 mi SSW 24.2 mph - N/A   Scattered Clouds
3:14 AM 26.6 °F 13.1 °F 19.4 °F 74% 29.91 in 10.0 mi SSW 19.6 mph 26.5 mph N/A   Scattered Clouds
3:34 AM 26.6 °F 11.7 °F 19.4 °F 74% 29.89 in 10.0 mi South 24.2 mph - N/A   Clear
3:54 AM 28.4 °F 14.7 °F 19.4 °F 69% 29.88 in 10.0 mi SSW 21.9 mph 28.8 mph N/A   Clear
4:14 AM 28.4 °F 14.4 °F 19.4 °F 69% 29.86 in 10.0 mi SSW 23.0 mph 29.9 mph N/A   Clear
4:34 AM 28.4 °F 13.0 °F 21.2 °F 74% 29.83 in 10.0 mi South 28.8 mph 33.4 mph N/A   Clear
4:54 AM 28.4 °F 13.0 °F 21.2 °F 74% 29.81 in 10.0 mi South 28.8 mph 36.8 mph N/A   Clear
5:13 AM 28.4 °F 14.4 °F 21.2 °F 74% 29.81 in 10.0 mi SSW 23.0 mph 31.1 mph N/A   Scattered Clouds
5:34 AM 28.4 °F 14.7 °F 21.2 °F 74% 29.82 in 10.0 mi SSW 21.9 mph 29.9 mph N/A   Overcast
5:54 AM 28.4 °F 15.8 °F 21.2 °F 74% 29.80 in 10.0 mi SSW 18.4 mph 27.6 mph N/A   Scattered Clouds
6:14 AM 28.4 °F 15.1 °F 21.2 °F 74% 29.79 in 10.0 mi SSW 20.7 mph 26.5 mph N/A   Scattered Clouds
6:34 AM 28.4 °F 16.2 °F 21.2 °F 74% 29.78 in 10.0 mi SSW 17.3 mph 25.3 mph N/A   Mostly Cloudy
6:54 AM 28.4 °F 14.4 °F 21.2 °F 74% 29.77 in 10.0 mi SSW 23.0 mph 29.9 mph N/A   Scattered Clouds
7:14 AM 30.2 °F 17.8 °F 21.2 °F 69% 29.77 in 10.0 mi SSW 19.6 mph 28.8 mph N/A   Mostly Cloudy
7:34 AM 30.2 °F 17.8 °F 21.2 °F 69% 29.76 in 10.0 mi SSW 19.6 mph 24.2 mph N/A   Overcast
7:54 AM 30.2 °F 17.8 °F 21.2 °F 69% 29.76 in 10.0 mi SSW 19.6 mph 24.2 mph N/A   Overcast
8:14 AM 30.2 °F 18.5 °F 21.2 °F 69% 29.75 in 7.0 mi SSW 17.3 mph 29.9 mph N/A Snow Light Snow
8:34 AM 28.4 °F 17.5 °F 23.0 °F 80% 29.75 in 4.0 mi SSW 13.8 mph - N/A Snow Light Snow
8:54 AM 28.4 °F 16.2 °F 23.0 °F 80% 29.75 in 5.0 mi SW 17.3 mph 23.0 mph N/A Snow Light Snow
9:14 AM 28.4 °F 16.6 °F 24.8 °F 86% 29.76 in 3.0 mi SW 16.1 mph - N/A Snow Light Snow
9:35 AM 28.4 °F 18.5 °F 24.8 °F 86% 29.76 in 2.0 mi SW 11.5 mph 28.8 mph N/A Snow Light Snow
9:54 AM 30.2 °F 19.3 °F 24.8 °F 80% 29.76 in 3.0 mi SW 15.0 mph 24.2 mph N/A Snow Light Snow
10:14 AM 30.2 °F 18.9 °F 26.6 °F 86% 29.76 in 4.0 mi SW 16.1 mph 24.2 mph N/A Snow Light Snow
10:34 AM 30.2 °F 18.9 °F 26.6 °F 86% 29.76 in 5.0 mi WSW 16.1 mph 26.5 mph N/A   Overcast
10:54 AM 30.2 °F 19.3 °F 26.6 °F 86% 29.77 in 4.0 mi WSW 15.0 mph 21.9 mph N/A Snow Light Snow
11:13 AM 30.2 °F 18.1 °F 26.6 °F 86% 29.77 in 1.5 mi SW 18.4 mph 21.9 mph N/A Snow Light Snow
11:34 AM 30.2 °F 19.3 °F 26.6 °F 86% 29.76 in 1.0 mi WSW 15.0 mph 19.6 mph N/A Snow Light Snow
11:54 AM 30.2 °F 16.8 °F 26.6 °F 86% 29.76 in 0.5 mi WSW 23.0 mph 32.2 mph N/A Snow Light Snow
12:14 PM 28.4 °F 15.4 °F 24.8 °F 86% 29.77 in 0.8 mi West 19.6 mph 27.6 mph N/A Snow Light Snow
12:34 PM 26.6 °F 14.3 °F 24.8 °F 93% 29.77 in 0.8 mi West 16.1 mph 19.6 mph N/A Snow Light Snow
1:14 PM 28.4 °F 18.0 °F 23.0 °F 80% 29.77 in 10.0 mi West 12.7 mph - N/A   Overcast
1:34 PM 28.4 °F 17.0 °F 19.4 °F 69% 29.77 in 10.0 mi West 15.0 mph 21.9 mph N/A   Mostly Cloudy
1:54 PM 26.6 °F 14.3 °F 15.8 °F 64% 29.78 in 10.0 mi West 16.1 mph 29.9 mph N/A   Mostly Cloudy
2:14 PM 26.6 °F 13.8 °F 15.8 °F 64% 29.78 in 10.0 mi West 17.3 mph 31.1 mph N/A   Scattered Clouds
2:34 PM 24.8 °F 12.4 °F 12.2 °F 59% 29.79 in 10.0 mi West 15.0 mph 28.8 mph N/A   Scattered Clouds
2:54 PM 23.0 °F 8.7 °F 10.4 °F 59% 29.80 in 10.0 mi West 18.4 mph 24.2 mph N/A   Scattered Clouds
3:34 PM 23.0 °F 8.3 °F 6.8 °F 50% 29.82 in 10.0 mi West 19.6 mph 27.6 mph N/A   Clear
3:54 PM 23.0 °F 8.7 °F 6.8 °F 50% 29.84 in 10.0 mi WNW 18.4 mph 25.3 mph N/A   Clear
4:14 PM 21.2 °F 4.5 °F 6.8 °F 54% 29.86 in 10.0 mi WNW 24.2 mph 28.8 mph N/A   Clear
4:54 PM 21.2 °F 7.8 °F 6.8 °F 54% 29.90 in 10.0 mi NW 15.0 mph 20.7 mph N/A   Clear
5:34 PM 17.6 °F 2.2 °F 5.0 °F 58% 29.94 in 10.0 mi WNW 17.3 mph 24.2 mph N/A   Clear
5:54 PM 17.6 °F 2.2 °F 3.2 °F 53% 29.95 in 10.0 mi WNW 17.3 mph 24.2 mph N/A   Clear
6:14 PM 17.6 °F 3.2 °F 3.2 °F 53% 29.97 in 10.0 mi WNW 15.0 mph 21.9 mph N/A   Clear
6:34 PM 15.8 °F 2.7 °F 1.4 °F 53% 29.99 in 10.0 mi WNW 11.5 mph 24.2 mph N/A   Clear
6:54 PM 15.8 °F 2.1 °F 1.4 °F 53% 30.00 in 10.0 mi WNW 12.7 mph - N/A   Clear
7:14 PM 15.8 °F 2.7 °F 1.4 °F 53% 30.02 in 10.0 mi WNW 11.5 mph - N/A   Clear
7:34 PM 15.8 °F 4.2 °F 1.4 °F 53% 30.04 in 10.0 mi WNW 9.2 mph - N/A   Clear
7:54 PM 14.0 °F 0.5 °F 1.4 °F 57% 30.04 in 10.0 mi WNW 11.5 mph 19.6 mph N/A   Clear
8:14 PM 14.0 °F 1.2 °F 1.4 °F 57% 30.05 in 10.0 mi WNW 10.4 mph 16.1 mph N/A   Clear
8:34 PM 12.2 °F -1.0 °F 1.4 °F 62% 30.06 in 10.0 mi WNW 10.4 mph - N/A   Clear
8:53 PM 12.2 °F 0.7 °F 3.2 °F 67% 30.06 in 10.0 mi WNW 8.1 mph - N/A   Scattered Clouds
9:14 PM 12.2 °F -4.3 °F 1.4 °F 62% 30.07 in 10.0 mi NW 16.1 mph 19.6 mph N/A   Scattered Clouds
9:34 PM 12.2 °F -3.1 °F 1.4 °F 62% 30.08 in 10.0 mi NW 13.8 mph - N/A   Clear
9:54 PM 12.2 °F -2.5 °F -0.4 °F 57% 30.08 in 10.0 mi NW 12.7 mph 16.1 mph N/A   Clear
10:34 PM 10.4 °F -2.4 °F -0.4 °F 62% 30.10 in 10.0 mi NW 9.2 mph - N/A   Clear
10:54 PM 10.4 °F -2.4 °F -0.4 °F 62% 30.10 in 10.0 mi NW 9.2 mph - N/A   Clear
11:14 PM 10.4 °F -2.4 °F -0.4 °F 62% 30.12 in 10.0 mi WNW 9.2 mph - N/A   Clear
11:34 PM 10.4 °F -0.4 °F -0.4 °F 62% 30.12 in 10.0 mi WNW 6.9 mph - N/A   Clear
11:54 PM 10.4 °F -1.5 °F -0.4 °F 62% 30.13 in 10.0 mi WNW 8.1 mph - N/A   Clear